Location: *
(51.5000°N, 0.1100°W)
Time: 13:55:29
(UTC+00:00)

DMSP 5D-2 F13 DEB - Visible Passes

Search period start: 03 October 2024 00:00
Search period end: 13 October 2024 00:00
Orbit: 733 x 759 km, 98.8° (Epoch: 02 October)

Date Brightness Start Highest point End Pass type
(mag) Time Alt. Az. Time Alt. Az. Time Alt. Az.
03 Oct ? 18:24:15 10° ESE 18:28:21 26° ENE 18:32:29 10° N visible
03 Oct ? 20:03:52 26° S 20:06:35 59° WSW 20:11:36 10° NNW visible
04 Oct ? 19:21:07 24° SE 19:24:09 65° ENE 19:29:11 10° N visible
04 Oct ? 21:00:55 16° SW 21:03:09 21° W 21:06:59 10° NW visible
05 Oct ? 18:38:16 14° ESE 18:41:53 31° ENE 18:46:18 10° N visible
05 Oct ? 20:18:04 28° SSW 20:20:17 46° W 20:25:09 10° NNW visible
06 Oct ? 17:56:40 10° E 17:59:45 17° NE 18:02:51 10° NNE visible
06 Oct ? 19:35:07 31° SSE 19:37:34 82° ENE 19:42:38 10° NNW visible
06 Oct ? 21:14:54 14° WSW 21:16:45 17° W 21:19:57 10° NW visible
07 Oct ? 18:52:04 20° ESE 18:55:01 39° ENE 18:59:41 10° N visible
07 Oct ? 20:31:51 28° SW 20:33:35 36° W 20:38:14 10° NNW visible
08 Oct ? 18:09:03 10° E 18:12:38 20° NE 18:16:13 10° N visible
08 Oct ? 19:48:43 39° S 19:50:36 80° WSW 19:55:41 10° NNW visible
08 Oct ? 21:28:29 12° WSW 21:29:58 13° W 21:32:17 10° WNW visible
09 Oct ? 19:05:28 28° SE 19:07:48 48° ENE 19:12:38 10° N visible
09 Oct ? 20:45:14 26° WSW 20:46:31 29° W 20:50:53 10° NW visible
10 Oct ? 18:22:08 14° ESE 18:25:09 24° ENE 18:29:07 10° N visible
10 Oct ? 20:01:54 45° SSW 20:03:16 64° WSW 20:08:17 10° NNW visible
11 Oct ? 19:18:28 38° SE 19:20:11 59° ENE 19:25:09 10° N visible
11 Oct ? 20:58:13 22° WSW 20:59:04 23° W 21:03:04 10° NW visible
12 Oct ? 18:34:56 20° ESE 18:37:17 29° ENE 18:41:33 10° N visible
12 Oct ? 20:14:41 45° SW 20:15:33 51° W 20:20:28 10° NNW visible
